NOAA 16 DEB, 42413

Orbit data source: Space-Track

NOAA 16 DEB, 42413 is space debris in SSO originally from a launch on Thu, 21 Sep 2000 UTC launched from the Air Force Western Test Range (AFWTR). Debris objects in space refer to the collection of defunct objects orbiting the Earth. Examples of debris include non-operational satellites, rocket bodies, and fragments generated from explosions, collisions, or faulty payload assembly.

Loading next visibility...
Identifier
42413, 2000-055TH
Orbit
SSO
Country
Flag of USUS
Related business
Manufacturer
Unknown
Mission
Spacecraft
Bus & Motor
Unknown
Mass
Unknown
Launch date (UTC)
2000-09-21 (26 years ago)
Launch vehicle
Unknown
Launch site
Air Force Western Test Range (AFWTR)
Object type
Payload
Rocket body
Debris
Shape & HBR
Unknown shape, 0.1 m
Radar Cross Section
Medium (>0.1 m² and <1 m²)

Expand to show TLE details & history
Last TLE update: 2 days ago

TLE from 2 days ago
0 NOAA 16 DEB
1 42413U 00055TH  26171.44010674  .00004882  00000-0  13193-2 0  9998
2 42413  98.9421 342.3556 0022993 109.6738 250.6937 14.48126377535969
Epoch: 2026-06-20T10:33Z
TLE epoch observation values (Epoch: 2026-06-20T10:33:45.222Z)
Latitude
-0.00001°
Longitude
-84.73752°
Altitude
740.159 km
Speed
7.482 km/s
True Right ascension
22h 49m 25s
True Declination
0° 00' 00"
Sunlit
Object was in daylight at epoch
Visualization orbit readout
Latitude
Unknown
Longitude
Unknown
Altitude
Unknown
Speed
Unknown
Apparent Right ascension
Unknown
Apparent Declination
Unknown
Sunlit
N/A
Visualization observer readout
Local Sidereal Time
21:35:43
Azimuth
Unknown
Elevation
Unknown
Doppler factor
Unknown
Orbital elements
Apogee altitude
745.248 km
Perigee altitude
712.566 km
Semi-major axis
7,107.044 km
Eccentricity
0.0023
Inclination
98.9421°
RAAN
342.3556°
Arg. of periapsis
109.6738°
True anomaly
250.44527°
Mean anomaly
250.6937°
Eccentric anomaly
250.56946°
Mean motion
3.62251 °/min
Orbital period
99.38 mins
BSTAR
0.0013193
Loading maneuver chart data...
Computing Atmospheric mass density...
Loading historical data...
Loading historical data...
Loading historical data...
Loading historical data...
Loading historical data...
Loading historical data...
Loading historical data...

Documentation

Showing up to 5 results
|